Wind_Speed
24 24 24 24 24 24 24 24 24 24 24 24 23 22 21 21 20 19 19 18 18 18 17 17 17 17 16 16 17 17 17 15 14 13 12 11 10 10 10 10 11 14 18
24 23 24 25 26 27 27 28 28 28 28 28 27 26 25 25 24 23 22 21 21 21 21 21 21 21 20 20 20 20 20 19 18 17 16 15 14 14 13 13 12 13 14
23 22 23 24 25 27 28 29 30 31 31 31 31 30 29 29 28 27 26 25 24 24 25 26 26 25 24 23 23 23 23 23 22 21 20 20 19 18 17 16 15 14 15
19 21 22 24 26 28 29 29 30 31 33 33 33 33 32 32 31 31 30 29 28 28 28 29 29 30 29 28 27 26 26 26 25 24 23 23 22 22 21 20 19 17 16
18 20 22 24 26 28 29 30 31 32 33 34 34 35 34 34 34 33 33 32 32 31 31 31 32 33 33 32 31 30 30 29 28 27 27 26 25 25 24 23 22 20 19
18 20 23 25 27 29 30 31 32 33 34 35 36 36 37 37 36 36 36 35 35 34 34 34 34 35 35 35 35 34 33 32 31 30 30 29 28 28 27 27 25 23 21
23 24 26 28 30 32 34 35 35 36 37 38 39 39 39 40 39 39 39 38 38 38 37 37 37 36 36 37 38 38 37 36 34 33 33 33 32 31 30 30 28 25 24
24 26 28 30 32 34 36 38 39 40 41 42 43 43 43 43 43 42 42 42 41 41 41 40 40 39 39 39 40 40 39 38 37 36 36 35 35 34 33 32 31 29 27
23 26 28 31 33 35 37 38 39 40 41 42 43 45 47 48 48 48 47 46 45 45 44 43 43 43 43 42 42 42 42 40 39 39 38 38 37 37 35 33 31 30 29
25 28 30 33 35 38 40 42 43 44 44 44 43 43 45 47 49 51 51 50 50 49 48 47 47 46 46 46 45 44 44 42 42 42 41 40 39 38 37 35 32 30 30
29 32 34 35 37 39 41 43 45 47 48 48 48 48 47 47 47 49 50 51 51 51 51 51 50 50 49 48 48 47 47 46 45 45 43 42 41 40 39 37 34 33 32
35 37 40 42 43 45 46 48 49 50 51 51 51 51 51 51 50 50 50 50 51 51 51 51 51 51 51 51 51 50 49 49 48 47 45 43 43 42 41 39 37 35 34
41 43 46 48 50 52 53 54 55 55 56 56 56 56 55 54 53 53 54 53 52 51 51 51 51 51 52 52 52 52 51 51 50 50 48 46 45 45 44 42 40 37 36
49 52 55 57 58 60 61 62 62 62 62 62 62 61 61 60 59 57 57 57 56 55 53 52 52 53 53 52 52 52 52 53 53 52 51 50 48 47 46 44 42 39 38
57 61 64 65 67 68 69 70 70 70 69 69 69 68 67 65 64 63 61 60 60 59 58 57 56 55 55 54 53 53 53 53 54 55 54 53 52 50 49 46 44 41 39
64 67 69 72 73 75 76 77 78 78 76 75 74 74 74 72 70 67 66 66 64 63 62 62 61 60 59 57 55 54 54 54 54 55 55 55 55 53 51 49 47 43 41
71 73 76 78 80 81 82 82 83 83 82 81 79 78 78 77 76 74 71 70 69 68 67 66 65 65 63 61 58 56 55 56 56 56 56 56 56 55 53 52 50 47 44
78 80 83 84 85 86 86 86 85 84 83 81 80 80 80 80 80 79 77 75 73 72 71 70 69 68 67 66 63 61 59 58 58 58 57 56 56 56 55 54 52 50 48
83 85 87 89 90 89 87 84 82 80 79 78 76 76 79 82 82 82 81 80 78 77 75 74 73 71 70 69 68 66 63 62 60 60 60 59 57 56 56 56 55 54 52
86 88 90 90 87 81 75 72 69 68 65 63 64 65 67 73 82 86 85 83 82 81 80 79 77 75 73 71 71 69 67 65 64 63 62 62 61 59 58 57 57 56 55
86 87 87 82 72 66 62 60 58 54 50 48 49 51 53 57 65 78 89 89 87 85 84 82 81 79 76 74 73 71 69 67 67 66 65 64 63 63 62 60 60 59 58
85 84 79 67 60 58 57 56 54 51 48 47 47 48 50 50 52 59 73 87 92 90 88 86 85 83 80 78 76 74 72 70 68 68 68 67 67 66 65 64 63 63 62
80 75 64 56 55 55 55 54 52 51 50 49 48 47 48 49 50 50 54 69 85 94 94 91 89 87 84 81 79 77 75 73 71 70 69 69 69 68 67 67 66 66 65
73 65 56 54 55 56 57 56 55 53 52 50 48 46 45 45 46 47 47 51 65 82 93 96 94 92 89 85 83 81 79 77 75 73 72 70 70 70 69 68 68 68 68
66 58 54 55 58 60 60 59 57 56 54 52 50 47 44 43 43 43 43 43 47 59 75 90 96 95 93 90 86 84 82 80 78 76 74 73 72 71 71 70 69 69 69
60 56 56 59 63 64 65 63 61 58 55 53 51 48 45 42 40 39 39 38 38 42 51 65 81 91 94 92 90 87 85 84 82 80 77 75 74 73 72 72 71 70 69
Wind_Direction
245 247 249 249 250 251 252 254 255 257 261 263 266 269 270 270 270 270 269 266 262 255 249 244 240 240 241 239 235 231 229 229 231 234 238 244 249 250 246 240 232 226 225
258 260 261 259 258 258 258 258 258 259 261 262 263 265 266 266 266 268 267 266 263 259 253 248 244 240 239 239 237 233 231 232 234 239 243 246 249 251 251 247 240 233 228
260 262 266 266 266 267 268 268 267 265 265 265 265 265 265 265 265 266 266 264 261 259 254 249 245 242 239 239 240 237 235 234 237 241 245 246 246 247 248 247 244 238 234
262 263 264 264 263 264 265 266 267 267 267 267 266 264 264 264 264 265 264 262 260 257 255 250 245 242 240 239 240 242 241 239 239 242 244 245 245 244 244 243 244 243 241
271 270 270 270 269 268 268 267 266 266 266 267 266 264 263 262 262 261 261 259 257 255 254 251 247 243 241 239 239 242 243 243 243 245 246 246 245 244 242 241 240 242 244
284 281 278 277 276 275 273 272 270 269 268 268 267 266 265 264 262 261 259 257 256 254 252 251 249 245 242 240 239 241 243 245 245 246 248 247 245 244 243 242 240 238 241
292 288 286 284 282 279 277 275 272 270 269 269 268 267 266 265 263 261 259 257 256 254 252 251 249 246 243 241 240 241 243 245 246 247 248 247 245 244 244 244 242 240 239
296 295 293 291 289 286 283 279 276 273 270 269 268 267 266 264 262 260 259 258 257 256 253 251 250 247 244 242 241 242 243 244 245 247 247 246 245 242 242 243 244 243 241
302 299 297 295 293 291 288 285 282 278 275 271 268 266 265 264 262 260 258 257 256 256 254 252 250 249 246 243 242 242 242 243 244 245 245 244 243 241 240 239 240 241 241
303 299 297 294 292 290 288 286 284 282 279 276 273 269 266 264 263 262 259 257 255 254 253 251 250 249 248 246 244 241 241 241 242 243 242 241 240 239 238 236 235 236 239
304 301 298 294 292 290 288 287 285 283 281 278 276 273 269 266 263 262 261 258 255 253 251 250 249 248 247 247 245 243 240 239 239 240 240 239 237 236 236 235 233 234 239
305 302 299 297 294 292 289 287 285 283 281 279 277 274 271 268 265 262 259 258 256 254 251 249 249 249 248 246 245 244 241 239 237 238 238 236 235 234 234 234 233 234 238
306 304 301 298 295 292 290 287 285 282 280 278 276 274 272 270 267 264 260 257 255 254 252 250 247 247 247 246 245 244 242 239 237 236 236 234 232 232 233 235 235 235 236
307 304 302 299 297 294 291 288 286 283 281 278 276 273 271 270 268 265 262 258 255 253 251 250 249 247 246 244 243 243 243 241 238 235 234 233 232 231 233 236 237 236 234
306 304 303 301 299 297 295 292 289 286 283 280 277 274 272 269 267 264 262 259 256 253 250 248 248 248 247 245 242 240 240 240 238 236 234 233 233 233 233 235 236 236 233
307 305 303 302 300 298 296 295 292 290 286 282 278 275 272 269 266 263 260 257 254 252 250 248 247 246 246 247 245 243 240 237 236 235 234 233 234 234 234 234 235 234 232
306 305 304 303 302 300 297 295 292 290 287 284 279 275 270 267 265 262 259 256 253 251 249 247 246 245 244 244 245 245 243 240 237 235 234 233 233 234 234 235 235 234 232
308 307 306 304 302 300 297 294 291 288 285 282 277 273 269 265 262 260 258 255 253 251 248 246 245 244 244 243 242 242 241 241 239 236 235 233 233 233 234 234 235 234 233
310 309 308 306 303 300 298 296 295 293 290 287 282 275 268 263 259 257 255 253 252 250 248 246 245 243 243 242 241 240 239 238 238 237 235 234 233 232 233 234 235 235 234
313 312 309 306 303 302 301 301 300 299 297 294 291 285 276 266 258 254 252 250 249 248 248 247 245 243 242 242 241 240 239 238 237 236 235 235 234 233 233 234 234 235 235
315 312 308 307 307 307 307 306 304 301 299 297 295 292 288 280 268 257 250 248 247 246 245 245 244 243 241 240 240 239 238 238 237 236 235 235 235 234 233 233 234 234 234
313 310 308 309 309 311 311 309 306 302 299 298 296 295 293 290 283 270 257 249 245 244 243 242 242 241 240 239 239 238 237 236 236 237 236 235 235 235 234 233 233 234 234
313 311 310 310 313 314 314 312 307 303 300 300 299 298 297 296 292 288 273 256 247 243 241 240 240 240 238 237 237 236 236 234 234 235 236 236 235 235 235 234 233 233 234
315 313 312 313 315 316 315 312 308 302 298 297 297 297 297 296 295 291 287 274 257 246 241 239 238 238 238 236 235 236 235 235 233 233 233 235 235 235 235 235 234 233 233
317 315 314 315 315 315 314 312 309 304 299 296 294 295 295 295 294 292 289 283 271 257 246 240 236 236 236 236 235 235 235 235 235 234 234 233 234 235 235 235 235 235 234
319 317 316 316 315 315 313 310 307 304 300 296 292 291 292 293 293 291 290 285 277 267 256 247 240 236 235 235 235 235 236 236 236 236 236 235 234 234 234 235 235 236 236
Height
5871 5870 5870 5870 5870 5869 5869 5868 5868 5867 5867 5866 5866 5865 5865 5864 5864 5863 5863 5862 5861 5861 5860 5860 5860 5861 5861 5862 5863 5864 5864 5864 5864 5864 5865 5865 5865 5865 5866 5866 5867 5867 5868
5869 5868 5867 5866 5866 5865 5865 5864 5863 5863 5862 5861 5861 5860 5860 5860 5859 5859 5858 5857 5857 5857 5856 5856 5856 5857 5857 5858 5859 5860 5861 5861 5861 5861 5862 5862 5863 5863 5864 5865 5865 5865 5866
5864 5863 5863 5862 5862 5861 5861 5860 5859 5858 5857 5857 5856 5856 5855 5854 5853 5853 5852 5852 5852 5852 5852 5852 5852 5853 5853 5854 5854 5856 5857 5857 5857 5858 5859 5859 5860 5861 5861 5862 5863 5863 5864
5860 5859 5858 5857 5856 5856 5855 5854 5854 5853 5852 5851 5851 5850 5849 5848 5847 5847 5846 5846 5845 5846 5846 5846 5847 5847 5848 5849 5849 5850 5852 5852 5853 5854 5855 5856 5856 5857 5858 5859 5859 5860 5861
5857 5856 5855 5854 5853 5852 5850 5849 5848 5847 5846 5845 5844 5843 5842 5841 5840 5840 5839 5839 5839 5839 5839 5840 5840 5841 5842 5843 5844 5844 5845 5846 5848 5849 5850 5851 5852 5853 5854 5855 5855 5856 5857
5854 5853 5852 5851 5849 5848 5846 5844 5843 5842 5841 5839 5838 5837 5836 5834 5833 5833 5832 5832 5832 5832 5832 5833 5833 5834 5835 5836 5837 5838 5839 5840 5842 5843 5845 5846 5847 5848 5849 5850 5851 5852 5853
5851 5849 5847 5846 5844 5842 5841 5839 5837 5835 5833 5831 5830 5829 5828 5827 5826 5825 5825 5824 5824 5824 5825 5825 5826 5826 5827 5828 5830 5831 5832 5833 5835 5837 5838 5840 5841 5842 5843 5844 5846 5847 5849
5847 5845 5842 5840 5838 5836 5833 5831 5829 5827 5825 5823 5822 5820 5819 5818 5817 5816 5815 5815 5815 5816 5816 5817 5817 5818 5819 5820 5822 5823 5824 5827 5829 5830 5831 5833 5835 5836 5837 5839 5840 5842 5844
5843 5841 5838 5835 5832 5829 5826 5823 5820 5818 5815 5813 5811 5810 5808 5807 5806 5805 5805 5805 5805 5806 5806 5807 5808 5809 5810 5812 5813 5814 5816 5819 5821 5822 5823 5825 5827 5829 5830 5832 5834 5836 5838
5838 5835 5832 5829 5825 5822 5818 5815 5812 5809 5806 5803 5801 5799 5797 5796 5795 5794 5794 5794 5794 5795 5795 5796 5798 5799 5800 5802 5804 5806 5808 5810 5812 5813 5815 5817 5820 5821 5823 5825 5828 5831 5832
5833 5829 5825 5822 5818 5814 5810 5806 5802 5799 5795 5793 5790 5789 5787 5785 5783 5782 5781 5782 5782 5782 5783 5785 5786 5788 5789 5791 5793 5796 5799 5801 5803 5804 5806 5809 5811 5814 5816 5819 5821 5824 5826
5827 5823 5818 5813 5809 5804 5800 5795 5791 5787 5784 5780 5778 5775 5774 5773 5772 5770 5769 5769 5769 5770 5771 5772 5774 5776 5778 5780 5782 5785 5788 5791 5794 5796 5798 5801 5803 5805 5808 5811 5814 5817 5820
5821 5816 5810 5804 5799 5793 5788 5783 5779 5774 5770 5767 5764 5762 5760 5758 5758 5758 5757 5757 5757 5758 5759 5760 5761 5762 5764 5767 5769 5772 5776 5780 5783 5786 5789 5792 5794 5797 5799 5803 5806 5809 5812
5812 5806 5800 5793 5787 5781 5775 5769 5764 5760 5756 5752 5749 5746 5744 5743 5742 5741 5742 5743 5743 5744 5745 5746 5748 5749 5751 5753 5756 5760 5763 5767 5771 5775 5779 5782 5785 5788 5791 5794 5797 5801 5805
5802 5795 5787 5779 5772 5765 5758 5751 5746 5741 5737 5734 5731 5728 5726 5725 5724 5724 5724 5725 5727 5729 5730 5732 5733 5735 5737 5740 5743 5746 5750 5753 5757 5762 5767 5771 5775 5778 5781 5785 5788 5793 5797
5789 5781 5772 5764 5756 5748 5740 5732 5725 5719 5714 5711 5708 5707 5705 5705 5705 5705 5705 5706 5708 5711 5713 5715 5718 5720 5723 5726 5730 5733 5736 5740 5744 5748 5754 5759 5764 5768 5772 5775 5779 5783 5787
5774 5765 5756 5747 5737 5728 5719 5710 5702 5695 5690 5685 5682 5680 5680 5680 5682 5683 5684 5686 5688 5691 5694 5697 5700 5703 5707 5711 5715 5719 5723 5727 5731 5735 5740 5745 5751 5756 5761 5765 5769 5773 5778
5758 5748 5737 5727 5717 5706 5695 5685 5677 5669 5663 5658 5654 5653 5652 5653 5655 5657 5660 5663 5666 5669 5673 5677 5681 5685 5690 5694 5698 5703 5708 5713 5718 5723 5727 5732 5738 5743 5749 5754 5758 5763 5767
5740 5728 5717 5705 5694 5682 5670 5659 5649 5641 5634 5629 5625 5624 5624 5625 5626 5629 5633 5637 5642 5647 5651 5655 5660 5665 5671 5676 5681 5686 5692 5697 5703 5709 5714 5719 5725 5730 5736 5742 5747 5752 5757
5720 5707 5695 5682 5670 5659 5649 5639 5629 5620 5612 5605 5599 5595 5594 5595 5597 5600 5604 5610 5615 5621 5627 5632 5638 5644 5651 5656 5662 5669 5675 5681 5687 5693 5699 5706 5711 5717 5723 5729 5735 5740 5746
5702 5688 5674 5660 5648 5639 5631 5623 5614 5606 5598 5591 5584 5577 5573 5570 5568 5570 5574 5580 5586 5594 5601 5607 5614 5622 5629 5636 5643 5650 5657 5664 5671 5677 5684 5690 5697 5703 5709 5716 5722 5728 5734
5685 5670 5655 5643 5633 5624 5616 5607 5599 5592 5585 5578 5571 5564 5557 5552 5547 5544 5544 5549 5556 5565 5573 5581 5589 5598 5607 5614 5622 5631 5639 5647 5654 5660 5667 5675 5682 5688 5695 5701 5708 5715 5722
5667 5652 5639 5630 5621 5612 5603 5594 5586 5578 5570 5563 5556 5549 5541 5534 5528 5523 5520 5520 5525 5534 5544 5554 5563 5573 5583 5592 5599 5609 5619 5628 5635 5642 5651 5658 5665 5672 5680 5687 5693 5700 5708
5650 5637 5626 5617 5609 5599 5589 5580 5571 5563 5556 5548 5541 5535 5528 5520 5513 5506 5502 5498 5498 5503 5513 5524 5535 5547 5558 5570 5577 5586 5596 5606 5615 5625 5633 5641 5648 5656 5664 5671 5678 5685 5693
5636 5625 5615 5605 5595 5585 5575 5565 5556 5547 5538 5531 5525 5519 5513 5507 5500 5493 5487 5483 5480 5480 5484 5494 5506 5519 5532 5545 5556 5565 5575 5585 5595 5605 5615 5624 5631 5639 5647 5655 5662 5670 5678
5625 5614 5604 5593 5582 5571 5559 5548 5539 5530 5521 5514 5508 5503 5498 5493 5487 5481 5475 5470 5467 5465 5466 5471 5481 5493 5506 5520 5533 5544 5553 5563 5574 5584 5594 5604 5613 5622 5629 5638 5646 5654 5663